Time,TemperatureF,DewpointF,PressureIn,WindDirection,WindDirectionDegrees,WindSpeedMPH,WindSpeedGustMPH,Humidity,HourlyPrecipIn,Conditions,Clouds,dailyrainin,SoftwareType,DateUTC
2013-12-31 00:10:00,4.2,0.0,30.10,SW,219,3.0,3.0,82,0.00,,,0.00,weatherlink.com 1.10,2013-12-31 05:10:00,
2013-12-31 00:25:00,4.1,0.0,30.07,SW,229,3.0,10.0,82,0.00,,,0.00,weatherlink.com 1.10,2013-12-31 05:25:00,
2013-12-31 00:40:00,4.4,0.0,30.07,WNW,285,0.0,8.0,83,0.00,,,0.00,weatherlink.com 1.10,2013-12-31 05:40:00,
2013-12-31 00:55:00,4.0,0.0,30.08,West,279,2.0,8.0,82,0.00,,,0.00,weatherlink.com 1.10,2013-12-31 05:55:00,
2013-12-31 01:10:00,3.8,-1.0,30.08,WSW,242,2.0,9.0,82,0.00,,,0.00,weatherlink.com 1.10,2013-12-31 06:10:00,
2013-12-31 01:25:00,3.7,0.0,30.07,WNW,299,2.0,8.0,83,0.00,,,0.00,weatherlink.com 1.10,2013-12-31 06:25:00,
2013-12-31 01:40:00,3.5,-1.0,30.08,South,188,1.0,6.0,82,0.00,,,0.00,weatherlink.com 1.10,2013-12-31 06:40:00,
2013-12-31 01:55:00,3.2,-1.0,30.09,NNW,343,2.0,5.0,81,0.00,,,0.00,weatherlink.com 1.10,2013-12-31 06:55:00,
2013-12-31 02:10:00,2.9,-2.0,30.09,West,278,0.0,8.0,81,0.00,,,0.00,weatherlink.com 1.10,2013-12-31 07:10:00,
2013-12-31 02:25:00,2.7,-2.0,30.08,WSW,257,0.0,4.0,82,0.00,,,0.00,weatherlink.com 1.10,2013-12-31 07:25:00,
2013-12-31 02:40:00,2.9,-1.0,30.09,SW,234,3.0,4.0,82,0.00,,,0.00,weatherlink.com 1.10,2013-12-31 07:40:00,
2013-12-31 02:56:00,2.8,-2.0,30.07,WNW,286,0.0,4.0,82,0.00,,,0.00,weatherlink.com 1.10,2013-12-31 07:56:00,
2013-12-31 03:11:00,2.9,-1.0,30.07,North,355,1.0,12.0,83,0.00,,,0.00,weatherlink.com 1.10,2013-12-31 08:11:00,
2013-12-31 03:26:00,4.3,1.0,30.08,NW,310,5.0,12.0,84,0.00,,,0.00,weatherlink.com 1.10,2013-12-31 08:26:00,
2013-12-31 03:41:00,2.9,-1.0,30.08,SW,215,1.0,3.0,83,0.00,,,0.00,weatherlink.com 1.10,2013-12-31 08:41:00,
2013-12-31 03:56:00,2.1,-2.0,30.09,SW,227,0.0,3.0,82,0.00,,,0.00,weatherlink.com 1.10,2013-12-31 08:56:00,
2013-12-31 04:11:00,2.1,-2.0,30.09,North,350,0.0,3.0,82,0.00,,,0.00,weatherlink.com 1.10,2013-12-31 09:11:00,
2013-12-31 04:26:00,2.0,-2.0,30.10,South,177,0.0,0.0,82,0.00,,,0.00,weatherlink.com 1.10,2013-12-31 09:26:00,
2013-12-31 04:41:00,1.5,-3.0,30.11,SSW,197,0.0,2.0,82,0.00,,,0.00,weatherlink.com 1.10,2013-12-31 09:41:00,
2013-12-31 04:56:00,0.9,-3.0,30.11,SSW,197,0.0,1.0,82,0.00,,,0.00,weatherlink.com 1.10,2013-12-31 09:56:00,
2013-12-31 05:12:00,0.2,-4.0,30.11,SSW,197,0.0,2.0,83,0.00,,,0.00,weatherlink.com 1.10,2013-12-31 10:12:00,
2013-12-31 05:26:00,0.2,-4.0,30.11,SSW,197,0.0,2.0,84,0.00,,,0.00,weatherlink.com 1.10,2013-12-31 10:26:00,
2013-12-31 05:41:00,0.5,-3.0,30.11,SW,229,0.0,4.0,84,0.00,,,0.00,weatherlink.com 1.10,2013-12-31 10:41:00,
2013-12-31 05:56:00,-0.4,-4.0,30.11,SW,229,0.0,1.0,84,0.00,,,0.00,weatherlink.com 1.10,2013-12-31 10:56:00,
2013-12-31 06:12:00,-0.6,-4.0,30.11,SW,229,0.0,1.0,85,0.00,,,0.00,weatherlink.com 1.10,2013-12-31 11:12:00,
2013-12-31 06:27:00,-1.2,-4.0,30.11,SW,229,0.0,1.0,86,0.00,,,0.00,weatherlink.com 1.10,2013-12-31 11:27:00,
2013-12-31 06:42:00,-1.1,-4.0,30.11,SW,220,0.0,2.0,86,0.00,,,0.00,weatherlink.com 1.10,2013-12-31 11:42:00,
2013-12-31 06:57:00,-1.4,-5.0,30.11,SW,220,2.0,2.0,86,0.00,,,0.00,weatherlink.com 1.10,2013-12-31 11:57:00,
2013-12-31 07:12:00,-0.6,-4.0,30.11,South,190,2.0,2.0,87,0.00,,,0.00,weatherlink.com 1.10,2013-12-31 12:12:00,
2013-12-31 07:27:00,-0.1,-3.0,30.11,SW,215,1.0,3.0,86,0.00,,,0.00,weatherlink.com 1.10,2013-12-31 12:27:00,
2013-12-31 07:42:00,0.3,-3.0,30.11,SSW,205,1.0,3.0,85,0.00,,,0.00,weatherlink.com 1.10,2013-12-31 12:42:00,
2013-12-31 07:57:00,0.9,-3.0,30.11,SSW,211,0.0,2.0,85,0.00,,,0.00,weatherlink.com 1.10,2013-12-31 12:57:00,
2013-12-31 08:12:00,1.8,-2.0,30.11,SSW,213,0.0,2.0,85,0.00,,,0.00,weatherlink.com 1.10,2013-12-31 13:12:00,
2013-12-31 08:27:00,3.2,0.0,30.11,NNW,347,0.0,3.0,86,0.00,,,0.00,weatherlink.com 1.10,2013-12-31 13:27:00,
2013-12-31 08:42:00,4.2,1.0,30.11,NNW,339,5.0,8.0,86,0.00,,,0.00,weatherlink.com 1.10,2013-12-31 13:42:00,
2013-12-31 08:57:00,5.8,3.0,30.11,North,355,4.0,10.0,86,0.00,,,0.00,weatherlink.com 1.10,2013-12-31 13:57:00,
2013-12-31 09:12:00,6.0,2.0,30.11,NNW,332,7.0,12.0,84,0.00,,,0.00,weatherlink.com 1.10,2013-12-31 14:12:00,
2013-12-31 09:27:00,6.2,2.0,30.11,NNW,340,8.0,12.0,82,0.00,,,0.00,weatherlink.com 1.10,2013-12-31 14:27:00,
2013-12-31 09:43:00,6.0,2.0,30.10,North,360,7.0,10.0,82,0.00,,,0.00,weatherlink.com 1.10,2013-12-31 14:43:00,
2013-12-31 09:58:00,6.3,2.0,30.10,NNW,348,7.0,11.0,83,0.00,,,0.00,weatherlink.com 1.10,2013-12-31 14:58:00,
2013-12-31 10:13:00,6.2,2.0,30.09,NNW,334,6.0,12.0,83,0.00,,,0.00,weatherlink.com 1.10,2013-12-31 15:13:00,
2013-12-31 10:28:00,7.3,4.0,30.08,NW,321,8.0,13.0,85,0.00,,,0.00,weatherlink.com 1.10,2013-12-31 15:28:00,
2013-12-31 10:43:00,7.1,3.0,30.07,WNW,296,10.0,13.0,84,0.00,,,0.00,weatherlink.com 1.10,2013-12-31 15:43:00,
2013-12-31 10:58:00,6.9,3.0,30.06,NW,310,6.0,13.0,83,0.00,,,0.00,weatherlink.com 1.10,2013-12-31 15:58:00,
2013-12-31 11:13:00,6.8,3.0,30.05,NW,317,9.0,11.0,83,0.00,,,0.00,weatherlink.com 1.10,2013-12-31 16:13:00,
2013-12-31 11:28:00,6.8,3.0,30.04,NNW,348,7.0,12.0,83,0.00,,,0.00,weatherlink.com 1.10,2013-12-31 16:28:00,
2013-12-31 11:43:00,7.2,3.0,30.04,NW,311,8.0,10.0,83,0.00,,,0.00,weatherlink.com 1.10,2013-12-31 16:43:00,
2013-12-31 11:58:00,7.6,3.0,30.02,North,355,6.0,11.0,82,0.00,,,0.00,weatherlink.com 1.10,2013-12-31 16:58:00,
2013-12-31 12:13:00,8.2,4.0,30.01,NW,319,0.0,9.0,83,0.00,,,0.00,weatherlink.com 1.10,2013-12-31 17:13:00,
2013-12-31 12:28:00,8.1,3.0,30.00,NW,319,3.0,9.0,80,0.00,,,0.00,weatherlink.com 1.10,2013-12-31 17:28:00,
2013-12-31 12:43:00,8.2,3.0,30.00,WNW,301,3.0,11.0,78,0.00,,,0.00,weatherlink.com 1.10,2013-12-31 17:43:00,
2013-12-31 12:59:00,8.7,3.0,30.00,NW,322,3.0,9.0,76,0.00,,,0.00,weatherlink.com 1.10,2013-12-31 17:59:00,
2013-12-31 13:14:00,9.4,3.0,29.99,NW,315,1.0,8.0,74,0.00,,,0.00,weatherlink.com 1.10,2013-12-31 18:14:00,
2013-12-31 13:29:00,9.2,3.0,29.99,NNW,333,3.0,9.0,76,0.00,,,0.00,weatherlink.com 1.10,2013-12-31 18:29:00,
2013-12-31 13:44:00,8.9,3.0,29.99,NNW,336,5.0,8.0,75,0.00,,,0.00,weatherlink.com 1.10,2013-12-31 18:44:00,
2013-12-31 13:59:00,9.4,3.0,29.98,NNW,336,3.0,9.0,76,0.00,,,0.00,weatherlink.com 1.10,2013-12-31 18:59:00,
2013-12-31 14:14:00,9.1,4.0,29.98,North,355,0.0,8.0,79,0.00,,,0.00,weatherlink.com 1.10,2013-12-31 19:14:00,
2013-12-31 14:29:00,8.9,4.0,29.98,NW,310,1.0,4.0,79,0.00,,,0.00,weatherlink.com 1.10,2013-12-31 19:29:00,
2013-12-31 14:44:00,9.5,5.0,29.98,NW,323,5.0,6.0,82,0.00,,,0.00,weatherlink.com 1.10,2013-12-31 19:44:00,
2013-12-31 14:59:00,9.3,5.0,29.97,WNW,282,0.0,5.0,81,0.00,,,0.00,weatherlink.com 1.10,2013-12-31 19:59:00,
2013-12-31 15:14:00,9.8,5.0,29.98,North,360,5.0,9.0,81,0.00,,,0.00,weatherlink.com 1.10,2013-12-31 20:14:00,
2013-12-31 15:29:00,9.6,5.0,29.98,NNE,17,2.0,7.0,80,0.00,,,0.00,weatherlink.com 1.10,2013-12-31 20:29:00,
2013-12-31 15:44:00,9.3,5.0,29.98,NNE,33,0.0,5.0,81,0.00,,,0.00,weatherlink.com 1.10,2013-12-31 20:44:00,
2013-12-31 15:59:00,9.1,5.0,29.98,NNW,338,0.0,3.0,82,0.00,,,0.00,weatherlink.com 1.10,2013-12-31 20:59:00,
2013-12-31 16:14:00,8.7,4.0,29.98,NNW,342,0.0,0.0,82,0.00,,,0.00,weatherlink.com 1.10,2013-12-31 21:14:00,
2013-12-31 16:30:00,7.8,4.0,29.99,NNW,342,0.0,0.0,83,0.00,,,0.00,weatherlink.com 1.10,2013-12-31 21:30:00,
2013-12-31 16:45:00,7.3,4.0,29.99,NNW,342,0.0,0.0,85,0.00,,,0.00,weatherlink.com 1.10,2013-12-31 21:45:00,
2013-12-31 17:00:00,6.8,4.0,30.00,NNW,342,0.0,0.0,86,0.00,,,0.00,weatherlink.com 1.10,2013-12-31 22:00:00,
2013-12-31 17:15:00,7.0,4.0,30.01,NNW,342,0.0,0.0,87,0.00,,,0.00,weatherlink.com 1.10,2013-12-31 22:15:00,
2013-12-31 17:30:00,7.6,5.0,30.01,SSW,210,0.0,2.0,87,0.00,,,0.00,weatherlink.com 1.10,2013-12-31 22:30:00,
2013-12-31 17:45:00,8.0,5.0,30.01,SSW,210,0.0,1.0,87,0.00,,,0.00,weatherlink.com 1.10,2013-12-31 22:45:00,
2013-12-31 18:00:00,8.0,5.0,30.02,West,281,0.0,1.0,87,0.00,,,0.00,weatherlink.com 1.10,2013-12-31 23:00:00,
2013-12-31 18:15:00,8.0,5.0,30.02,West,281,0.0,1.0,88,0.00,,,0.00,weatherlink.com 1.10,2013-12-31 23:15:00,
2013-12-31 18:30:00,7.6,5.0,30.02,West,281,0.0,1.0,87,0.00,,,0.00,weatherlink.com 1.10,2013-12-31 23:30:00,
2013-12-31 18:45:00,7.1,4.0,30.02,NW,316,0.0,2.0,87,0.00,,,0.00,weatherlink.com 1.10,2013-12-31 23:45:00,
2013-12-31 19:00:00,6.2,3.0,30.03,SSW,202,0.0,0.0,87,0.00,,,0.00,weatherlink.com 1.10,2014-01-01 00:00:00,
2013-12-31 19:15:00,5.2,2.0,30.04,SW,234,0.0,2.0,87,0.00,,,0.00,weatherlink.com 1.10,2014-01-01 00:15:00,
2013-12-31 19:30:00,4.5,2.0,30.04,SW,235,0.0,1.0,87,0.00,,,0.00,weatherlink.com 1.10,2014-01-01 00:30:00,
2013-12-31 19:45:00,4.4,1.0,30.04,SW,235,0.0,1.0,87,0.00,,,0.00,weatherlink.com 1.10,2014-01-01 00:45:00,
2013-12-31 20:01:00,3.5,1.0,30.04,SW,235,0.0,0.0,87,0.00,,,0.00,weatherlink.com 1.10,2014-01-01 01:01:00,
2013-12-31 20:16:00,2.7,0.0,30.04,SW,235,0.0,2.0,87,0.00,,,0.00,weatherlink.com 1.10,2014-01-01 01:16:00,
2013-12-31 20:31:00,2.1,-1.0,30.04,SW,235,0.0,2.0,88,0.00,,,0.00,weatherlink.com 1.10,2014-01-01 01:31:00,
2013-12-31 20:46:00,1.5,-1.0,30.03,SW,235,0.0,2.0,88,0.00,,,0.00,weatherlink.com 1.10,2014-01-01 01:46:00,
2013-12-31 21:01:00,1.5,-1.0,30.04,SW,235,0.0,2.0,89,0.00,,,0.00,weatherlink.com 1.10,2014-01-01 02:01:00,
2013-12-31 21:16:00,1.6,-1.0,30.03,SW,235,0.0,2.0,89,0.00,,,0.00,weatherlink.com 1.10,2014-01-01 02:16:00,
2013-12-31 21:31:00,1.3,-1.0,30.03,SW,235,1.0,2.0,89,0.00,,,0.00,weatherlink.com 1.10,2014-01-01 02:31:00,
2013-12-31 21:46:00,1.2,-1.0,30.03,SW,235,0.0,2.0,89,0.00,,,0.00,weatherlink.com 1.10,2014-01-01 02:46:00,
2013-12-31 22:01:00,1.2,-1.0,30.03,SW,235,1.0,2.0,89,0.00,,,0.00,weatherlink.com 1.10,2014-01-01 03:01:00,
2013-12-31 22:16:00,0.8,-2.0,30.03,SW,235,0.0,2.0,89,0.00,,,0.00,weatherlink.com 1.10,2014-01-01 03:16:00,
2013-12-31 22:31:00,1.0,-2.0,30.03,SW,235,0.0,0.0,89,0.00,,,0.00,weatherlink.com 1.10,2014-01-01 03:31:00,
2013-12-31 22:46:00,0.9,-2.0,30.03,SW,235,0.0,0.0,89,0.00,,,0.00,weatherlink.com 1.10,2014-01-01 03:46:00,
2013-12-31 23:01:00,1.0,-2.0,30.02,SW,235,0.0,0.0,89,0.00,,,0.00,weatherlink.com 1.10,2014-01-01 04:01:00,
2013-12-31 23:16:00,1.4,-1.0,30.02,SW,229,0.0,2.0,89,0.00,,,0.00,weatherlink.com 1.10,2014-01-01 04:16:00,
2013-12-31 23:32:00,2.0,0.0,30.02,West,276,0.0,2.0,90,0.00,,,0.00,weatherlink.com 1.10,2014-01-01 04:32:00,
2013-12-31 23:47:00,2.9,1.0,30.03,West,276,0.0,2.0,90,0.00,,,0.00,weatherlink.com 1.10,2014-01-01 04:47:00,